KD5NDU-15 Weather Reports


time (UTC)temp
C
wind
direction
speed
KPH
gust
KPH
rain 1hr
cm
rain 24hr
cm
rain mn
cm
humidity
%
barometer
mb
20260902203636 36 18 0.0 3.2 0.00 0.00 0.00 51 1015.6
20260902203136 36 128 0.0 1.6 0.00 0.00 0.00 52 1015.6
20260902202636 36 139 1.6 3.2 0.00 0.00 0.00 52 1015.7
20260902202136 36 144 3.2 8.0 0.00 0.00 0.00 52 1015.7
20260902201636 36 165 3.2 8.0 0.00 0.00 0.00 51 1015.9
20260902201136 36 200 3.2 9.7 0.00 0.00 0.00 51 1015.9
20260902200636 36 136 3.2 8.0 0.00 0.00 0.00 51 1016.0
20260902200136 36 100 1.6 6.4 0.00 0.00 0.00 52 1016.1
20260902195636 36 103 1.6 4.8 0.00 0.00 0.00 51 1016.1
20260902195136 36 134 3.2 8.0 0.00 0.00 0.00 50 1016.2
20260902194636 37 151 3.2 8.0 0.00 0.00 0.00 49 1016.3
20260902194136 36 52 1.6 6.4 0.00 0.00 0.00 50 1016.4
20260902193636 36 89 1.6 4.8 0.00 0.00 0.00 51 1016.4
20260902193136 36 99 3.2 4.8 0.00 0.00 0.00 50 1016.6
20260902192636 36 186 3.2 8.0 0.00 0.00 0.00 50 1016.6
20260902192136 36 103 1.6 6.4 0.00 0.00 0.00 51 1016.7
20260902191636 36 193 3.2 6.4 0.00 0.00 0.00 49 1016.8
20260902191136 36 167 4.8 12.9 0.00 0.00 0.00 49 1016.8
20260902190636 36 82 3.2 11.3 0.00 0.00 0.00 50 1017.0
20260902190136 36 224 3.2 6.4 0.00 0.00 0.00 52 1017.1
20260902185636 35 236 4.8 6.4 0.00 0.00 0.00 53 1017.1
20260902185136 36 232 6.4 12.9 0.00 0.00 0.00 52 1017.3
20260902184636 36 238 4.8 9.7 0.00 0.00 0.00 50 1017.3
20260902184136 37 194 3.2 11.3 0.00 0.00 0.00 50 1017.4
20260902183636 36 164 4.8 9.7 0.00 0.00 0.00 50 1017.3
20260902183136 36 96 3.2 9.7 0.00 0.00 0.00 52 1017.4
20260902182636 37 108 1.6 6.4 0.00 0.00 0.00 52 1017.4
20260902182136 36 243 1.6 4.8 0.00 0.00 0.00 55 1017.5
20260902181636 36 65 1.6 6.4 0.00 0.00 0.00 55 1017.6
20260902181136 36 211 1.6 3.2 0.00 0.00 0.00 54 1017.7
20260902180636 36 225 1.6 4.8 0.00 0.00 0.00 55 1017.7
20260902180136 35 27 1.6 6.4 0.00 0.00 0.00 59 1017.8
20260902175636 35 86 1.6 8.0 0.00 0.00 0.00 57 1017.9
20260902175136 35 155 1.6 6.4 0.00 0.00 0.00 57 1017.9
20260902174636 35 172 0.0 3.2 0.00 0.00 0.00 57 1018.0
20260902174136 35 182 1.6 3.2 0.00 0.00 0.00 57 1018.2
20260902173636 35 179 1.6 4.8 0.00 0.00 0.00 56 1018.3
20260902173136 35 179 0.0 4.8 0.00 0.00 0.00 56 1018.4
20260902172636 35 174 1.6 3.2 0.00 0.00 0.00 56 1018.4
20260902172136 35 153 3.2 6.4 0.00 0.00 0.00 56 1018.5
20260902171636 35 204 3.2 6.4 0.00 0.00 0.00 57 1018.5
20260902171136 35 250 3.2 9.7 0.00 0.00 0.00 56 1018.6
20260902170636 35 295 3.2 8.0 0.00 0.00 0.00 57 1018.6
20260902170136 35 234 4.8 11.3 0.00 0.00 0.00 55 1018.7
20260902165636 35 188 6.4 11.3 0.00 0.00 0.00 57 1018.7
20260902165136 35 214 6.4 11.3 0.00 0.00 0.00 59 1018.6
20260902164636 34 260 6.4 11.3 0.00 0.00 0.00 60 1018.8
20260902164136 34 235 4.8 8.0 0.00 0.00 0.00 60 1019.0
20260902163636 35 226 3.2 6.4 0.00 0.00 0.00 58 1018.9
20260902163136 35 148 4.8 6.4 0.00 0.00 0.00 59 1019.0
20260902162636 35 243 4.8 8.0 0.00 0.00 0.00 58 1018.9
20260902162136 35 205 3.2 12.9 0.00 0.00 0.00 58 1018.9
20260902161636 35 42 4.8 8.0 0.00 0.00 0.00 57 1018.8
20260902161136 35 160 4.8 8.0 0.00 0.00 0.00 59 1018.9
20260902160636 35 227 4.8 8.0 0.00 0.00 0.00 58 1019.0
20260902160136 35 180 4.8 8.0 0.00 0.00 0.00 58 1018.9
20260902155637 35 245 3.2 8.0 0.00 0.00 0.00 58 1019.1
20260902155136 35 219 1.6 6.4 0.00 0.00 0.00 60 1018.9
20260902154636 34 323 1.6 4.8 0.00 0.00 0.00 64 1018.9
20260902154136 34 266 3.2 4.8 0.00 0.00 0.00 66 1019.0
20260902153636 33 208 3.2 6.4 0.00 0.00 0.00 65 1019.1
20260902153136 33 232 3.2 4.8 0.00 0.00 0.00 66 1019.2
20260902152636 33 230 3.2 4.8 0.00 0.00 0.00 69 1019.2
20260902152136 33 189 3.2 9.7 0.00 0.00 0.00 68 1019.3
20260902151636 33 340 1.6 3.2 0.00 0.00 0.00 68 1019.1
20260902151136 33 352 1.6 3.2 0.00 0.00 0.00 69 1019.1
20260902150636 33 110 1.6 3.2 0.00 0.00 0.00 72 1019.0
20260902150136 33 105 1.6 4.8 0.00 0.00 0.00 70 1019.1
20260902145636 33 352 1.6 3.2 0.00 0.00 0.00 71 1019.1
20260902145136 32 236 1.6 3.2 0.00 0.00 0.00 71 1019.0
20260902144636 32 313 0.0 3.2 0.00 0.00 0.00 73 1019.0
20260902144136 32 308 0.0 3.2 0.00 0.00 0.00 72 1018.9
20260902143636 32 332 1.6 1.6 0.00 0.00 0.00 74 1019.1
20260902143136 31 334 1.6 3.2 0.00 0.00 0.00 75 1019.1
20260902142636 31 352 0.0 3.2 0.00 0.00 0.00 75 1019.2
20260902142136 31 338 0.0 3.2 0.00 0.00 0.00 78 1019.1
20260902141636 30 343 1.6 4.8 0.00 0.00 0.00 79 1019.0
20260902141136 30 250 1.6 3.2 0.00 0.00 0.00 79 1019.0
20260902140636 29 245 1.6 3.2 0.00 0.00 0.00 80 1018.9
20260902140136 29 271 1.6 8.0 0.00 0.00 0.00 80 1018.8
20260902135636 28 240 1.6 4.8 0.00 0.00 0.00 81 1019.0
20260902135136 28 238 3.2 6.4 0.00 0.00 0.00 81 1019.1
20260902134636 28 251 3.2 6.4 0.00 0.00 0.00 82 1019.2
20260902134136 27 240 3.2 8.0 0.00 0.00 0.00 83 1019.3
20260902133636 27 234 3.2 6.4 0.00 0.00 0.00 84 1019.2
20260902133136 27 225 3.2 6.4 0.00 0.00 0.00 84 1019.2
20260902132636 27 213 3.2 4.8 0.00 0.00 0.00 85 1019.2
20260902132136 26 207 3.2 4.8 0.00 0.00 0.00 86 1019.3
20260902131636 26 177 1.6 4.8 0.00 0.00 0.00 86 1019.2
20260902131136 26 177 1.6 4.8 0.00 0.00 0.00 86 1019.1
20260902130636 25 176 0.0 3.2 0.00 0.00 0.00 88 1019.2
20260902130136 25 164 0.0 3.2 0.00 0.00 0.00 89 1019.1
20260902125636 24 164 1.6 3.2 0.00 0.00 0.00 91 1019.1
20260902125136 23 156 1.6 4.8 0.00 0.00 0.00 92 1019.1
20260902124636 23 157 1.6 4.8 0.00 0.00 0.00 93 1018.9
20260902124136 23 153 1.6 3.2 0.00 0.00 0.00 93 1018.9
20260902123637 23 150 0.0 3.2 0.00 0.00 0.00 93 1018.8
20260902123136 23 150 0.0 3.2 0.00 0.00 0.00 93 1018.8
20260902122637 23 150 0.0 0.0 0.00 0.00 0.00 93 1018.7
20260902122137 22 150 0.0 0.0 0.00 0.00 0.00 94 1018.7
20260902121637 22 150 0.0 0.0 0.00 0.00 0.00 94 1018.7
20260902121137 22 150 0.0 0.0 0.00 0.00 0.00 94 1018.7
20260902120637 22 150 0.0 0.0 0.00 0.00 0.00 93 1018.5
20260902120137 22 150 0.0 0.0 0.00 0.00 0.00 93 1018.5
20260902115637 22 150 0.0 0.0 0.00 0.00 0.00 93 1018.4
20260902115137 22 150 0.0 0.0 0.00 0.00 0.00 93 1018.2
20260902114637 22 150 0.0 0.0 0.00 0.00 0.00 93 1018.2
20260902114137 22 150 0.0 0.0 0.00 0.00 0.00 93 1018.1
20260902113637 22 150 0.0 0.0 0.00 0.00 0.00 93 1018.0
20260902113137 22 150 0.0 0.0 0.00 0.00 0.00 93 1018.1
20260902112637 22 150 0.0 0.0 0.00 0.00 0.00 93 1018.1
20260902112137 22 150 0.0 0.0 0.00 0.00 0.00 93 1018.1
20260902111637 22 150 0.0 0.0 0.00 0.00 0.00 93 1018.0
20260902111137 22 150 0.0 0.0 0.00 0.00 0.00 93 1018.0
20260902110637 22 150 0.0 0.0 0.00 0.00 0.00 93 1017.9
20260902110137 22 150 0.0 0.0 0.00 0.00 0.00 92 1017.8
20260902105637 23 150 0.0 0.0 0.00 0.00 0.00 92 1017.7
20260902105137 23 150 0.0 1.6 0.00 0.00 0.00 92 1017.6
20260902104637 23 150 0.0 0.0 0.00 0.00 0.00 92 1017.4
20260902104137 23 150 0.0 3.2 0.00 0.00 0.00 92 1017.5
20260902103637 23 139 0.0 0.0 0.00 0.00 0.00 92 1017.4
20260902103137 23 139 0.0 0.0 0.00 0.00 0.00 92 1017.5
20260902102637 23 139 0.0 0.0 0.00 0.00 0.00 92 1017.4
20260902102137 23 139 0.0 0.0 0.00 0.00 0.00 92 1017.3
20260902101637 23 139 0.0 0.0 0.00 0.00 0.00 92 1017.4
20260902101137 23 139 0.0 0.0 0.00 0.00 0.00 92 1017.4
20260902100637 23 139 0.0 0.0 0.00 0.00 0.00 92 1017.5
20260902100137 23 139 0.0 0.0 0.00 0.00 0.00 92 1017.4
20260902095637 23 139 0.0 0.0 0.00 0.00 0.00 92 1017.4
20260902095137 23 139 0.0 0.0 0.00 0.00 0.00 92 1017.3
20260902094637 23 139 0.0 0.0 0.00 0.00 0.00 92 1017.3
20260902094137 23 139 0.0 0.0 0.00 0.00 0.00 92 1017.5
20260902093637 23 139 1.6 0.0 0.00 0.00 0.00 92 1017.4
20260902093137 23 139 1.6 3.2 0.00 0.00 0.00 92 1017.4
20260902092637 23 136 1.6 4.8 0.00 0.00 0.00 91 1017.4
20260902092137 23 132 0.0 0.0 0.00 0.00 0.00 89 1017.3
20260902091637 23 132 0.0 0.0 0.00 0.00 0.00 89 1017.4
20260902091137 24 132 0.0 0.0 0.00 0.00 0.00 89 1017.3
20260902090637 24 132 0.0 0.0 0.00 0.00 0.00 88 1017.2
20260902090137 24 132 0.0 0.0 0.00 0.00 0.00 88 1017.3
20260902085637 24 132 0.0 0.0 0.00 0.00 0.00 88 1017.2
20260902085137 25 132 0.0 1.6 0.00 0.00 0.00 87 1017.1
20260902084637 25 132 0.0 1.6 0.00 0.00 0.00 87 1017.1
20260902084137 25 132 0.0 1.6 0.00 0.00 0.00 86 1017.0
20260902083637 25 132 0.0 3.2 0.00 0.00 0.00 87 1016.9
20260902083137 25 132 0.0 3.2 0.00 0.00 0.00 87 1017.0
20260902082637 24 135 0.0 3.2 0.00 0.00 0.00 88 1017.0
20260902082137 24 134 0.0 3.2 0.00 0.00 0.00 88 1017.0
20260902081637 24 133 0.0 3.2 0.00 0.00 0.00 88 1016.9
20260902081137 24 158 0.0 0.0 0.00 0.00 0.00 88 1016.8
20260902080637 25 158 0.0 0.0 0.00 0.00 0.00 87 1016.9
20260902080137 25 158 0.0 0.0 0.00 0.00 0.00 86 1017.0
20260902075637 25 158 0.0 1.6 0.00 0.00 0.00 85 1016.9
20260902075137 25 158 0.0 1.6 0.00 0.00 0.00 85 1016.9
20260902074637 25 158 0.0 3.2 0.00 0.00 0.00 84 1017.0
20260902074137 25 158 0.0 3.2 0.00 0.00 0.00 84 1017.1
20260902073637 25 158 0.0 1.6 0.00 0.00 0.00 84 1017.1
20260902073137 25 158 0.0 3.2 0.00 0.00 0.00 84 1017.1
20260902072637 25 159 0.0 1.6 0.00 0.00 0.00 85 1017.1
20260902072137 25 159 0.0 1.6 0.00 0.00 0.00 84 1017.0
20260902071637 25 159 0.0 1.6 0.00 0.00 0.00 84 1017.0
20260902071137 25 159 0.0 1.6 0.00 0.00 0.00 84 1017.1
20260902070637 25 159 1.6 3.2 0.00 0.00 0.00 84 1017.1
20260902070137 25 159 0.0 3.2 0.00 0.00 0.00 84 1017.1
20260902065637 25 159 0.0 1.6 0.00 0.00 0.00 84 1016.9
20260902065137 26 160 0.0 1.6 0.00 0.00 0.00 84 1017.0
20260902064637 26 160 0.0 1.6 0.00 0.00 0.00 83 1017.1
20260902064137 26 160 0.0 3.2 0.00 0.00 0.00 83 1017.1
20260902063637 26 160 0.0 3.2 0.00 0.00 0.00 83 1017.0
20260902063137 26 160 1.6 1.6 0.00 0.00 0.00 83 1017.2
20260902062637 26 162 1.6 6.4 0.00 0.00 0.00 83 1017.1
20260902062137 26 129 1.6 3.2 0.00 0.00 0.00 84 1017.2
20260902061637 26 107 0.0 3.2 0.00 0.00 0.00 83 1017.2
20260902061137 26 110 0.0 1.6 0.00 0.00 0.00 83 1017.1
20260902060637 26 105 0.0 3.2 0.00 0.00 0.00 83 1017.1
20260902060137 26 105 0.0 3.2 0.00 0.00 0.00 83 1017.1
20260902055637 26 120 1.6 3.2 0.00 0.00 0.00 83 1017.2
20260902055137 26 121 1.6 4.8 0.00 0.00 0.00 83 1017.2
20260902054637 26 81 0.0 3.2 0.00 0.00 0.00 83 1017.2
20260902054137 26 76 0.0 1.6 0.00 0.00 0.00 82 1017.3
20260902053637 26 98 0.0 1.6 0.00 0.00 0.00 82 1017.2
20260902053137 26 82 0.0 4.8 0.00 0.00 0.00 82 1017.2
20260902052637 26 81 0.0 1.6 0.00 0.00 0.00 81 1017.1
20260902052137 26 89 0.0 1.6 0.00 0.00 0.00 81 1017.0
20260902051637 26 89 0.0 3.2 0.00 0.00 0.00 80 1017.0
20260902051137 26 91 0.0 4.8 0.00 0.00 0.00 80 1017.1
20260902050637 27 119 0.0 1.6 0.00 0.00 0.00 80 1017.1
20260902050137 27 119 0.0 1.6 0.00 0.00 0.00 79 1017.1
20260902045637 27 116 1.6 3.2 0.00 0.00 0.00 79 1017.1
20260902045137 27 109 1.6 4.8 0.00 0.00 0.00 79 1017.1
20260902044637 27 100 1.6 6.4 0.00 0.00 0.00 78 1017.2
20260902044137 27 143 1.6 4.8 0.00 0.00 0.00 78 1017.1
20260902043637 27 153 1.6 6.4 0.00 0.00 0.00 78 1017.1
20260902043137 27 172 1.6 8.0 0.00 0.00 0.00 78 1017.1
20260902042637 27 164 0.0 4.8 0.00 0.00 0.00 78 1017.1
20260902042137 27 176 1.6 3.2 0.00 0.00 0.00 77 1017.1
20260902041637 27 134 1.6 6.4 0.00 0.00 0.00 77 1017.1
20260902041137 27 113 1.6 4.8 0.00 0.00 0.00 77 1017.0
20260902040637 27 154 1.6 8.0 0.00 0.00 0.00 77 1017.1
20260902040137 27 141 1.6 6.4 0.00 0.00 0.00 77 1017.2
20260902035637 28 174 1.6 4.8 0.00 0.00 0.00 78 1017.3
20260902035137 28 176 1.6 4.8 0.00 0.00 0.00 75 1017.3
20260902034637 28 158 1.6 4.8 0.00 0.00 0.00 75 1017.3
20260902034137 28 162 1.6 4.8 0.00 0.00 0.00 75 1017.3
20260902033637 28 141 1.6 1.6 0.00 0.00 0.00 74 1017.4
20260902033137 28 100 1.6 4.8 0.00 0.00 0.00 74 1017.4
20260902032637 28 174 1.6 4.8 0.00 0.00 0.00 74 1017.3
20260902032137 28 161 1.6 4.8 0.00 0.00 0.00 74 1017.3
20260902031637 28 158 1.6 3.2 0.00 0.00 0.00 74 1017.3
20260902031137 28 160 1.6 3.2 0.00 0.00 0.00 74 1017.4
20260902030637 28 133 0.0 4.8 0.00 0.00 0.00 74 1017.4
20260902030137 28 153 1.6 3.2 0.00 0.00 0.00 75 1017.4
20260902025637 28 153 1.6 4.8 0.00 0.00 0.00 75 1017.4
20260902025137 28 153 0.0 4.8 0.00 0.00 0.00 74 1017.4
20260902024637 28 108 0.0 0.0 0.00 0.00 0.00 74 1017.4
20260902024137 28 89 0.0 0.0 0.00 0.00 0.00 75 1017.3
20260902023637 29 89 0.0 0.0 0.00 0.00 0.00 71 1017.1
20260902023137 29 89 0.0 0.0 0.00 0.00 0.00 72 1017.1
20260902022637 30 89 0.0 0.0 0.00 0.00 0.00 70 1017.0
20260902022137 30 89 0.0 1.6 0.00 0.00 0.00 70 1016.9
20260902021637 30 89 0.0 3.2 0.00 0.00 0.00 69 1016.9
20260902021137 30 90 0.0 1.6 0.00 0.00 0.00 70 1017.0
20260902020637 30 89 0.0 3.2 0.00 0.00 0.00 70 1017.0
20260902020137 30 78 0.0 3.2 0.00 0.00 0.00 69 1016.8
20260902015637 29 78 0.0 4.8 0.00 0.00 0.00 70 1016.6
20260902015137 29 198 0.0 0.0 0.00 0.00 0.00 69 1016.5
20260902014637 30 203 0.0 0.0 0.00 0.00 0.00 69 1016.5
20260902014137 30 203 0.0 0.0 0.00 0.00 0.00 69 1016.5
20260902013637 30 203 0.0 0.0 0.00 0.00 0.00 70 1016.2
20260902013137 30 203 0.0 0.0 0.00 0.00 0.00 69 1016.2
20260902012637 30 203 0.0 0.0 0.00 0.00 0.00 69 1016.2
20260902012137 30 204 0.0 0.0 0.00 0.00 0.00 69 1016.2
20260902011637 30 204 0.0 0.0 0.00 0.00 0.00 70 1016.0
20260902011137 30 204 0.0 0.0 0.00 0.00 0.00 70 1016.0
20260902010637 30 204 0.0 0.0 0.00 0.00 0.00 68 1016.0
20260902010137 31 204 0.0 0.0 0.00 0.00 0.00 67 1016.1
20260902005637 31 204 0.0 0.0 0.00 0.00 0.00 66 1016.1
20260902005137 31 204 0.0 0.0 0.00 0.00 0.00 65 1016.1
20260902004637 31 204 0.0 0.0 0.00 0.00 0.00 64 1016.1
20260902004137 31 204 0.0 0.0 0.00 0.00 0.00 63 1016.1
20260902003637 32 204 0.0 0.0 0.00 0.00 0.00 62 1016.2
20260902003137 32 204 0.0 0.0 0.00 0.00 0.00 62 1016.1
20260902002637 32 204 0.0 0.0 0.00 0.00 0.00 60 1016.0
20260902002137 32 204 0.0 0.0 0.00 0.00 0.00 60 1015.9
20260902001637 32 204 0.0 1.6 0.00 0.00 0.00 59 1015.9
20260902001137 33 204 0.0 1.6 0.00 0.00 0.00 59 1015.9
20260902000637 33 204 1.6 3.2 0.00 0.00 0.00 58 1015.9
20260902000137 33 204 1.6 4.8 0.00 0.00 0.00 58 1015.9
20260901235637 33 214 3.2 4.8 0.00 0.00 0.00 58 1015.9
20260901235137 33 192 3.2 6.4 0.00 0.00 0.00 57 1016.0
20260901234637 33 193 3.2 6.4 0.00 0.00 0.00 56 1016.0
20260901234137 34 203 3.2 8.0 0.00 0.00 0.00 55 1016.1
20260901233637 34 213 3.2 9.7 0.00 0.00 0.00 55 1016.1
20260901233137 34 185 3.2 8.0 0.00 0.00 0.00 54 1016.1
20260901232638 34 238 3.2 6.4 0.00 0.00 0.00 55 1016.2
20260901232138 35 208 3.2 8.0 0.00 0.00 0.00 54 1016.2
20260901231638 35 186 3.2 8.0 0.00 0.00 0.00 53 1016.3
20260901231138 35 160 3.2 9.7 0.00 0.00 0.00 53 1016.3
20260901230638 35 160 3.2 6.4 0.00 0.00 0.00 53 1016.3
20260901230138 35 99 3.2 8.0 0.00 0.00 0.00 53 1016.2
20260901225638 35 152 3.2 6.4 0.00 0.00 0.00 53 1016.2
20260901225138 35 117 3.2 6.4 0.00 0.00 0.00 52 1016.2
20260901224638 36 178 3.2 3.2 0.00 0.00 0.00 52 1016.3
20260901224138 36 165 3.2 6.4 0.00 0.00 0.00 52 1016.3
20260901223638 36 170 3.2 8.0 0.00 0.00 0.00 52 1016.3
20260901223138 36 82 3.2 6.4 0.00 0.00 0.00 52 1016.3
20260901222638 36 172 3.2 9.7 0.00 0.00 0.00 51 1016.1
20260901222138 36 137 4.8 11.3 0.00 0.00 0.00 51 1016.2
20260901221638 36 138 3.2 6.4 0.00 0.00 0.00 50 1016.2
20260901221138 36 194 3.2 8.0 0.00 0.00 0.00 50 1016.1
20260901220638 36 129 4.8 8.0 0.00 0.00 0.00 50 1016.2
20260901220138 36 252 4.8 8.0 0.00 0.00 0.00 50 1016.2
20260901215638 36 207 3.2 12.9 0.00 0.00 0.00 49 1016.3
20260901215138 36 85 3.2 6.4 0.00 0.00 0.00 49 1016.3
20260901214638 36 162 4.8 12.9 0.00 0.00 0.00 51 1016.4
20260901214138 36 135 4.8 16.1 0.00 0.00 0.00 50 1016.4
20260901213638 37 154 3.2 16.1 0.00 0.00 0.00 50 1016.5
20260901213138 37 157 3.2 9.7 0.00 0.00 0.00 51 1016.4
20260901212638 37 72 3.2 9.7 0.00 0.00 0.00 51 1016.4
20260901212138 36 164 4.8 11.3 0.00 0.00 0.00 51 1016.4
20260901211638 36 113 6.4 9.7 0.00 0.00 0.00 52 1016.4
20260901211138 36 167 4.8 14.5 0.00 0.00 0.00 52 1016.5
20260901210638 36 155 4.8 8.0 0.00 0.00 0.00 51 1016.5
20260901210138 36 23 4.8 12.9 0.00 0.00 0.00 51 1016.6
20260901205638 36 153 4.8 16.1 0.00 0.00 0.00 52 1016.6
20260901205138 36 12 4.8 12.9 0.00 0.00 0.00 52 1016.6
20260901204638 36 194 4.8 12.9 0.00 0.00 0.00 50 1016.7
20260901204138 37 136 4.8 12.9 0.00 0.00 0.00 49 1016.8